Вернуться в каталог

STARLINK-31342

АктивенСвязьVLEO
NORAD 59166·PAYLOAD·🇺🇸 United States

Запущен Mar 4, 2024 с Cape Canaveral Space Force Station

Loading…

Ближайшие Пролёты (ближайшие 24 часа)

TLE

СвежийSource: CelesTrak SupGP

Эпоха: Sep 14, 2026, 20:52 UTC

1 59166C 24044Q   26257.86993056 -.00065125  00000+0 -23591-2 0  2578
2 59166  42.9995 118.5700 0001368 267.8212 285.4347 15.27607299    17

Отслеживайте STARLINK-31342 в реальном времени с AllMySat

Download on the App Store